Carlsbad, NM

1:09 AM MST on November 25, 2017 (GMT -0700)
Cavern City

Weather History for KCNM - September, 2012

Change the Weather History Date:

Saturday, September 29, 2012

  Actual Average Record
Temperature  
Mean Temperature 66 °F -  
Max Temperature 73 °F 82 °F 102 °F (1977)
Min Temperature 59 °F 54 °F 43 °F (1984)
Growing Degree Days 16 (Base 50)    
Moisture  
Dew Point 58 °F    
Average Humidity 87    
Maximum Humidity 94    
Minimum Humidity 59    
Precipitation  
Precipitation 0.23 in - - ()
Sea Level Pressure  
Sea Level Pressure 30.06 in    
Wind  
Wind Speed 8 mph (ENE)    
Max Wind Speed 15 mph    
Max Gust Speed -    
Visibility 8 miles    
Events Rain    
Averages and records for this station are not official NWS values.
T = Trace of Precipitation, MM = Missing Value Source: NWS Daily Summary

Daily Weather History Graph

Daily Weather History Graph

Search for Another Location

Airport or City:

Trip Planner

Search our weather history database for the weather conditions in past years. The results will help you decide how hot, cold, wet, or windy it might be!

Date:

Astronomy

Sep. 29, 2012 Rise Set
Actual Time 6:50 AM MDT 6:43 PM MDT
Civil Twilight 6:25 AM MDT 7:08 PM MDT
Nautical Twilight 5:57 AM MDT 7:36 PM MDT
Astronomical Twilight 5:28 AM MDT 8:05 PM MDT
Moon 6:20 PM MDT (9/29) 6:22 AM MDT (9/29)
Length of Visible Light 12h 42m
Length of Day
11h 53m
Full, 100% of the Moon is Illuminated
Sep 29
Full
Sep 29
Full
Oct 8
Last Quarter
Oct 15
New
Oct 21
First Quarter

Hourly Weather History & Observations

Time (MDT) Temp. Dew Point Humidity Pressure Visibility Wind Dir Wind Speed Gust Speed Precip Events Conditions
12:53 AM 61.0 °F 57.9 °F 90% 30.00 in 10.0 mi North 11.5 mph - 0.00 in   Overcast
1:53 AM 61.0 °F 59.0 °F 93% 30.00 in 10.0 mi NW 11.5 mph - N/A   Overcast
2:46 AM 60.8 °F 57.2 °F 88% 30.10 in 10.0 mi NW 11.5 mph - N/A   Overcast
2:53 AM 61.0 °F 59.0 °F 93% 29.99 in 10.0 mi NW 13.8 mph - N/A   Overcast
3:53 AM 61.0 °F 59.0 °F 93% 29.99 in 10.0 mi NNW 15.0 mph - 0.02 in Rain Light Rain
4:07 AM 60.8 °F 59.0 °F 94% 30.09 in 10.0 mi NNW 12.7 mph - 0.00 in   Overcast
4:53 AM 61.0 °F 57.9 °F 90% 29.99 in 10.0 mi NNW 10.4 mph - 0.00 in   Overcast
5:53 AM 61.0 °F 57.9 °F 90% 30.01 in 10.0 mi NNW 11.5 mph - N/A   Overcast
6:53 AM 61.0 °F 57.9 °F 90% 30.02 in 10.0 mi NNW 8.1 mph - N/A   Overcast
7:53 AM 62.1 °F 59.0 °F 90% 30.04 in 10.0 mi North 11.5 mph - N/A   Overcast
8:41 AM 62.6 °F 57.2 °F 82% 30.15 in 10.0 mi NW 3.5 mph - 0.00 in   Overcast
8:50 AM 62.6 °F 59.0 °F 88% 30.15 in 10.0 mi Calm Calm - 0.00 in   Overcast
8:53 AM 62.1 °F 59.0 °F 90% 30.05 in 10.0 mi Calm Calm - 0.00 in   Overcast
9:07 AM 62.6 °F 59.0 °F 88% 30.16 in 1.8 mi NE 5.8 mph - 0.01 in Rain Rain
9:14 AM 60.8 °F 59.0 °F 94% 30.16 in 1.5 mi East 5.8 mph - 0.02 in Rain Rain
9:18 AM 60.8 °F 59.0 °F 94% 30.17 in 1.8 mi East 5.8 mph - 0.02 in Rain Rain
9:26 AM 60.8 °F 59.0 °F 94% 30.17 in 2.5 mi East 4.6 mph - 0.02 in Rain Light Rain
9:33 AM 60.8 °F 59.0 °F 94% 30.17 in 1.8 mi East 8.1 mph - 0.03 in Rain Light Rain
9:40 AM 60.8 °F 59.0 °F 94% 30.17 in 1.5 mi East 6.9 mph - 0.05 in Rain Light Rain
9:53 AM 59.0 °F 57.0 °F 93% 30.08 in 1.0 mi East 11.5 mph - 0.15 in Rain Heavy Rain
10:03 AM 59.0 °F 57.2 °F 94% 30.18 in 3.0 mi East 10.4 mph - 0.02 in Rain Light Rain
10:14 AM 59.0 °F 57.2 °F 94% 30.17 in 1.8 mi East 6.9 mph - 0.04 in Rain Heavy Rain
10:21 AM 59.0 °F 57.2 °F 94% 30.18 in 3.0 mi East 5.8 mph - 0.04 in Rain Light Rain
10:36 AM 60.8 °F 57.2 °F 88% 30.17 in 3.0 mi East 3.5 mph - 0.06 in Rain Light Rain
10:53 AM 61.0 °F 57.9 °F 90% 30.06 in 10.0 mi Calm Calm - 0.06 in   Overcast
11:53 AM 64.9 °F 59.0 °F 81% 30.04 in 10.0 mi Variable 3.5 mph - N/A   Mostly Cloudy
12:53 PM 66.9 °F 60.1 °F 79% 30.01 in 10.0 mi SW 4.6 mph - 0.00 in   Mostly Cloudy
1:53 PM 66.9 °F 60.1 °F 79% 29.99 in 10.0 mi SE 9.2 mph - N/A   Overcast
2:53 PM 68.0 °F 57.9 °F 70% 29.96 in 10.0 mi SSE 5.8 mph - N/A   Mostly Cloudy
3:53 PM 72.0 °F 57.9 °F 61% 29.94 in 10.0 mi SE 4.6 mph - N/A   Mostly Cloudy
4:53 PM 72.0 °F 57.0 °F 59% 29.93 in 10.0 mi Variable 3.5 mph - N/A   Clear
5:53 PM 71.1 °F 57.9 °F 63% 29.94 in 10.0 mi ESE 5.8 mph - N/A   Clear
6:53 PM 66.9 °F 60.1 °F 79% 29.96 in 10.0 mi SE 3.5 mph - N/A   Clear
7:53 PM 64.9 °F 60.1 °F 84% 29.97 in 10.0 mi SE 3.5 mph - N/A   Clear
8:53 PM 63.0 °F 60.1 °F 90% 29.99 in 10.0 mi South 4.6 mph - N/A   Clear
9:53 PM 61.0 °F 59.0 °F 93% 30.02 in 10.0 mi SSW 5.8 mph - N/A   Clear
10:53 PM 61.0 °F 59.0 °F 93% 30.01 in 10.0 mi SSW 5.8 mph - N/A   Clear
11:53 PM 60.1 °F 57.9 °F 93% 30.00 in 10.0 mi SW 3.5 mph - N/A   Clear